This demonstration page uses our WeatherBlox Daily Observations layout. Learn more.

Left ArrowRight Arrow

44.31136, -96.79839

Hourly Observations for May 9, 2022

Temp ( °F °C ) Dew Point ( °F °C ) Humidity (%) Winds ( mph kmh ) Pressure ( in mb ) Visibility ( mi km ) Precip ( " mm )
12:56 am 00:56 Cloudy with Mist and Fog 55 12.8 54 12.2 96 96 ESE 12 19 29.59 1002 4 6 0.00 0.00
1:15 am 01:15 Cloudy with Mist and Fog 55 13 54 12 94 94 ESE 12 19 29.55 1001 2 3 0.00 0.00
1:22 am 01:22 Cloudy with Light Rain 55 13 54 12 94 94 ESE 13 20 29.54 1000 1 2 0.00 0.00
1:30 am 01:30 Cloudy with Light Rain 55 13 54 12 94 94 ESE 13 20 29.54 1000 1 2 0.00 0.00
1:56 am 01:56 Cloudy with Mist and Fog 55 12.8 55 12.8 100 100 ESE 16 26 29.53 1000 3 4 0.00 0.00
2:07 am 02:07 Cloudy with Mist and Fog 55 13 55 13 100 100 ESE 15 24 29.48 998 4 6 0.00 0.00
2:21 am 02:21 Cloudy with Mist and Fog 55 13 55 13 100 100 ESE 15 24 29.47 998 5 8 0.00 0.00
2:52 am 02:52 Cloudy 55 13 54 12 94 94 ESE 16 26 29.44 997 8 13 0.00 0.00
2:56 am 02:56 Cloudy 56 13.3 54 12.2 93 93 ESE 16 26 29.48 998 9 14 0.00 0.00
3:09 am 03:09 Cloudy 55 13 54 12 94 94 ESE 17 28 29.43 997 10 16 0.00 0.00
3:56 am 03:56 Cloudy 56 13.3 53 11.7 90 90 ESE 16 26 29.45 997 10 16 0.00 0.00
4:56 am 04:56 Cloudy 57 13.9 53 11.7 87 87 ESE 20 31 29.37 995 10 16 0.00 0.00
5:56 am 05:56 Cloudy 57 13.9 53 11.7 87 87 E 24 39 29.24 990 10 16 0.00 0.00
6:07 am 06:07 Cloudy with Nearby Thunderstorms 57 14 54 12 88 88 ESE 26 43 29.18 988 10 16 0.00 0.00
6:11 am 06:11 Cloudy with Nearby Thunderstorms 57 14 54 12 88 88 ESE 24 39 29.18 988 10 16 0.00 0.00
6:24 am 06:24 Cloudy with Thunderstorms 57 14 54 12 88 88 S 15 24 29.29 992 7 11 0.04 1.02
6:31 am 06:31 Cloudy with Thunderstorms 57 14 54 12 88 88 S 13 20 29.29 992 4 6 0.08 2.03
6:48 am 06:48 Cloudy with Light Rain 57 14 55 13 94 94 SSE 20 31 29.26 991 8 13 0.10 2.54
6:56 am 06:56 Cloudy 59 15 57 13.9 93 93 SSE 23 37 29.29 992 10 16 0.10 2.54
7:20 am 07:20 Cloudy 61 16 57 14 88 88 SSE 30 48 29.21 989 10 16 0.00 0.00
7:31 am 07:31 Cloudy 61 16 57 14 88 88 SSE 23 37 29.22 990 10 16 0.00 0.00
7:43 am 07:43 Cloudy 61 16 57 14 88 88 SSE 24 39 29.22 990 10 16 0.00 0.00
7:56 am 07:56 Cloudy 61 16.1 57 13.9 87 87 SSE 23 37 29.26 991 10 16 0.00 0.00
8:56 am 08:56 Cloudy 63 17.2 60 15.6 90 90 SSE 23 37 29.26 991 9 14 0.00 0.00
9:56 am 09:56 Cloudy 67 19.4 62 16.7 84 84 SSE 24 39 29.25 991 8 13 0.00 0.00
10:30 am 10:30 Cloudy 70 21 64 18 83 83 S 21 33 29.18 988 8 13 0.00 0.00
10:56 am 10:56 Cloudy 71 21.7 65 18.3 81 81 SSW 16 26 29.28 991 8 13 0.00 0.00
11:56 am 11:56 Mostly Cloudy 71 21.7 65 18.3 81 81 W 25 41 29.32 993 9 14 0.00 0.00
12:13 pm 12:13 Partly Cloudy 72 22 64 18 78 78 SW 22 35 29.25 990 10 16 0.00 0.00
12:56 pm 12:56 Mostly Sunny 72 22.2 61 16.1 68 68 WSW 23 37 29.35 994 10 16 0.00 0.00
1:56 pm 13:56 Mostly Cloudy 72 22.2 60 15.6 66 66 W 29 46 29.39 995 10 16 0.00 0.00
2:35 pm 14:35 Partly Cloudy 70 21 57 14 64 64 W 28 44 29.35 994 10 16 0.00 0.00
2:56 pm 14:56 Partly Cloudy 69 20.6 58 14.4 68 68 WSW 25 41 29.45 997 10 16 0.00 0.00
3:56 pm 15:56 Partly Cloudy 70 21.1 58 14.4 66 66 W 26 43 29.50 999 10 16 0.00 0.00
4:56 pm 16:56 Sunny 70 21.1 54 12.2 57 57 WSW 24 39 29.54 1000 10 16 0.00 0.00
5:56 pm 17:56 Mostly Sunny 70 21.1 49 9.4 47 47 W 29 46 29.60 1003 10 16 0.00 0.00
6:56 pm 18:56 Sunny 67 19.4 53 11.7 61 61 WNW 23 37 29.65 1004 10 16 0.00 0.00
7:56 pm 19:56 Sunny 64 17.8 47 8.3 54 54 W 16 26 29.71 1006 10 16 0.00 0.00
8:56 pm 20:56 Clear 58 14.4 46 7.8 65 65 WNW 13 20 29.76 1008 10 16 0.00 0.00
9:56 pm 21:56 Clear 54 12.2 46 7.8 75 75 WNW 6 9 29.79 1009 10 16 0.00 0.00
10:56 pm 22:56 Clear 53 11.7 45 7.2 74 74 WNW 7 11 29.79 1009 10 16 0.00 0.00
11:56 pm 23:56 Clear 54 12.2 44 6.7 69 69 WNW 3 6 29.83 1010 10 16 0.00 0.00

Powered by AerisWeather